| time (UTC) | temp F | wind direction | speed knots | gust knots | rain 1hr in | rain 24hr in | rain mn in | humidity % | barometer mb |
| 20260506113023 | 57 | 263 | 2.6 | 0.0 | 0.00 | 0.00 | 0.03 | 100 | 1006.6 |
| 20260506111518 | 57 | 331 | 0.0 | 0.0 | 0.00 | 0.00 | 0.01 | 100 | 1006.2 |
| 20260506110014 | 57 | 332 | 0.9 | 0.0 | 0.00 | 0.00 | 0.00 | 100 | 1006.0 |
| 20260506104510 | 57 | 330 | 0.0 | 0.0 | 0.00 | 0.00 | 0.00 | 100 | 1005.7 |
| 20260506103005 | 58 | 329 | 0.9 | 0.0 | 0.00 | 0.00 | 0.00 | 100 | 1005.5 |
| 20260506101501 | 57 | 323 | 0.9 | 0.0 | 0.00 | 0.00 | 0.00 | 100 | 1005.2 |
| 20260506100101 | 57 | 323 | 0.9 | 0.0 | 0.00 | 0.00 | 0.00 | 100 | 1005.2 |
| 20260506094553 | 58 | 355 | 0.9 | 0.0 | 0.00 | 0.00 | 0.00 | 100 | 1005.4 |
| 20260506093048 | 58 | 355 | 0.0 | 0.0 | 0.00 | 0.00 | 0.00 | 100 | 1005.2 |
| 20260506091544 | 58 | 12 | 0.9 | 0.0 | 0.00 | 0.00 | 0.00 | 100 | 1005.4 |
| 20260506090039 | 58 | 22 | 0.0 | 0.0 | 0.00 | 0.00 | 0.00 | 100 | 1005.5 |
| 20260506084540 | 58 | 26 | 0.9 | 0.0 | 0.00 | 0.00 | 0.00 | 100 | 1005.4 |
| 20260506083033 | 58 | 18 | 0.9 | 0.0 | 0.00 | 0.00 | 0.00 | 100 | 1005.8 |
| 20260506081528 | 58 | 48 | 1.7 | 0.0 | 0.00 | 0.00 | 0.00 | 100 | 1005.4 |
| 20260506073014 | 58 | 34 | 2.6 | 0.0 | 0.00 | 0.00 | 0.00 | 100 | 1005.9 |
| 20260506071510 | 58 | 18 | 3.5 | 0.0 | 0.00 | 0.00 | 0.00 | 100 | 1006.1 |
| 20260506061556 | 57 | 63 | 4.3 | 0.0 | 0.00 | 0.00 | 0.00 | 100 | 1006.3 |
| 20260506044527 | 58 | 13 | 0.0 | 0.0 | 0.00 | 0.00 | 0.00 | 100 | 1007.3 |
| 20260506043022 | 57 | 13 | 1.7 | 0.0 | 0.00 | 0.00 | 0.00 | 100 | 1007.2 |
| 20260506041517 | 58 | 60 | 0.9 | 0.0 | 0.00 | 0.00 | 0.00 | 100 | 1007.2 |
| 20260506040027 | 58 | 55 | 0.9 | 0.0 | 0.00 | 0.00 | 0.00 | 100 | 1007.1 |
| 20260506034511 | 58 | 63 | 1.7 | 0.0 | 0.00 | 0.00 | 0.00 | 100 | 1006.9 |
| 20260506033006 | 60 | 338 | 0.0 | 0.0 | 0.00 | 0.00 | 0.00 | 100 | 1006.9 |
| 20260506031501 | 60 | 338 | 0.0 | 0.0 | 0.00 | 0.00 | 0.00 | 100 | 1006.9 |
| 20260506030059 | 60 | 338 | 0.9 | 0.0 | 0.00 | 0.00 | 0.00 | 100 | 1006.8 |
| 20260506024557 | 59 | 338 | 2.6 | 0.0 | 0.00 | 0.00 | 0.00 | 100 | 1007.0 |
| 20260506023057 | 61 | 249 | 0.0 | 0.0 | 0.00 | 0.00 | 0.00 | 100 | 1007.2 |
| 20260506021554 | 62 | 244 | 0.9 | 0.0 | 0.00 | 0.00 | 0.00 | 100 | 1007.2 |
| 20260506020040 | 63 | 244 | 0.9 | 0.0 | 0.00 | 0.00 | 0.00 | 100 | 1007.1 |
| 20260506014537 | 64 | 244 | 0.9 | 0.0 | 0.00 | 0.00 | 0.00 | 100 | 1006.9 |
| 20260506013030 | 65 | 342 | 1.7 | 0.0 | 0.00 | 0.00 | 0.00 | 100 | 1006.8 |
| 20260506011529 | 66 | 332 | 1.7 | 0.0 | 0.00 | 0.00 | 0.00 | 100 | 1006.7 |
| 20260506010040 | 68 | 261 | 0.9 | 0.0 | 0.00 | 0.00 | 0.00 | 100 | 1006.7 |
| 20260506004517 | 70 | 213 | 0.0 | 0.0 | 0.00 | 0.00 | 0.00 | 100 | 1006.5 |
| 20260506003012 | 71 | 215 | 0.9 | 0.0 | 0.00 | 0.00 | 0.00 | 100 | 1006.4 |
| 20260506001508 | 72 | 293 | 0.9 | 0.0 | 0.00 | 0.00 | 0.00 | 100 | 1006.1 |
| 20260506000004 | 73 | 331 | 3.5 | 0.0 | 0.00 | 0.00 | 0.00 | 100 | 1005.9 |
| 20260505234611 | 74 | 266 | 2.6 | 0.0 | 0.00 | 0.00 | 0.00 | 100 | 1005.7 |
| 20260505233055 | 75 | 202 | 0.9 | 0.0 | 0.00 | 0.00 | 0.00 | 100 | 1005.7 |
| 20260505231553 | 75 | 186 | 2.6 | 0.0 | 0.00 | 0.00 | 0.00 | 100 | 1005.7 |
| 20260505230046 | 75 | 338 | 5.2 | 0.0 | 0.00 | 0.00 | 0.00 | 100 | 1005.4 |
| 20260505224542 | 76 | 279 | 6.1 | 0.0 | 0.00 | 0.00 | 0.00 | 100 | 1005.1 |
| 20260505223040 | 77 | 292 | 7.8 | 0.0 | 0.00 | 0.00 | 0.00 | 100 | 1005.1 |
| 20260505221534 | 81 | 282 | 8.7 | 0.0 | 0.00 | 0.00 | 0.00 | 100 | 1004.9 |
| 20260505220029 | 82 | 183 | 10.4 | 0.0 | 0.00 | 0.00 | 0.00 | 100 | 1004.7 |
| 20260505214552 | 81 | 205 | 13.0 | 0.0 | 0.00 | 0.00 | 0.00 | 100 | 1004.7 |
| 20260505213021 | 82 | 181 | 15.6 | 0.0 | 0.00 | 0.00 | 0.00 | 100 | 1004.7 |
| 20260505211516 | 82 | 194 | 17.4 | 0.0 | 0.00 | 0.00 | 0.00 | 100 | 1004.5 |
| 20260505210011 | 81 | 210 | 14.8 | 0.0 | 0.00 | 0.00 | 0.00 | 100 | 1004.4 |
| 20260505204508 | 82 | 214 | 13.9 | 0.0 | 0.00 | 0.00 | 0.00 | 100 | 1004.4 |
| 20260505203008 | 80 | 211 | 13.9 | 0.0 | 0.00 | 0.00 | 0.00 | 100 | 1004.7 |
| 20260505201558 | 81 | 211 | 17.4 | 0.0 | 0.00 | 0.00 | 0.00 | 100 | 1004.7 |
| 20260505200105 | 80 | 223 | 18.2 | 0.0 | 0.00 | 0.00 | 0.00 | 100 | 1004.9 |
| 20260505194559 | 81 | 197 | 20.0 | 0.0 | 0.00 | 0.00 | 0.00 | 100 | 1005.2 |
| 20260505193050 | 81 | 206 | 16.5 | 0.0 | 0.00 | 0.00 | 0.00 | 100 | 1005.3 |
| 20260505191541 | 81 | 192 | 16.5 | 0.0 | 0.00 | 0.00 | 0.00 | 100 | 1005.3 |
| 20260505190038 | 81 | 178 | 14.8 | 0.0 | 0.00 | 0.00 | 0.00 | 100 | 1005.3 |
| 20260505184532 | 81 | 213 | 16.5 | 0.0 | 0.00 | 0.00 | 0.00 | 100 | 1005.3 |
| 20260505183027 | 80 | 174 | 18.2 | 0.0 | 0.00 | 0.00 | 0.00 | 100 | 1005.6 |
| 20260505181523 | 81 | 207 | 16.5 | 0.0 | 0.00 | 0.00 | 0.00 | 100 | 1005.8 |
| 20260505180040 | 80 | 215 | 15.6 | 0.0 | 0.00 | 0.00 | 0.00 | 100 | 1006.2 |
| 20260505174530 | 80 | 200 | 14.8 | 0.0 | 0.00 | 0.00 | 0.00 | 100 | 1006.3 |
| 20260505173017 | 79 | 198 | 16.5 | 0.0 | 0.00 | 0.00 | 0.00 | 100 | 1006.4 |
| 20260505171508 | 80 | 211 | 14.8 | 0.0 | 0.00 | 0.00 | 0.00 | 100 | 1006.4 |
| 20260505170001 | 80 | 238 | 15.6 | 0.0 | 0.00 | 0.00 | 0.00 | 100 | 1006.6 |
| 20260505164557 | 79 | 180 | 17.4 | 0.0 | 0.00 | 0.00 | 0.00 | 100 | 1006.7 |
| 20260505163055 | 78 | 217 | 13.9 | 0.0 | 0.00 | 0.00 | 0.00 | 100 | 1006.8 |
| 20260505161549 | 77 | 241 | 14.8 | 0.0 | 0.00 | 0.00 | 0.00 | 100 | 1007.1 |
| 20260505153035 | 76 | 232 | 17.4 | 0.0 | 0.00 | 0.00 | 0.00 | 100 | 1007.6 |
| 20260505151533 | 75 | 218 | 18.2 | 0.0 | 0.00 | 0.00 | 0.00 | 100 | 1007.7 |
| 20260505124547 | 65 | 94 | 0.9 | 0.0 | 0.00 | 0.00 | 0.00 | 100 | 1008.7 |
| 20260505123047 | 63 | 24 | 1.7 | 0.0 | 0.00 | 0.00 | 0.00 | 100 | 1008.8 |
| 20260505121538 | 61 | 66 | 2.6 | 0.0 | 0.00 | 0.00 | 0.00 | 100 | 1008.9 |
| 20260505120036 | 59 | 76 | 1.7 | 0.0 | 0.00 | 0.00 | 0.00 | 100 | 1008.8 |
| 20260505114530 | 56 | 34 | 1.7 | 0.0 | 0.00 | 0.00 | 0.00 | 100 | 1008.9 |